Flag for U.S.A. Weather past 2 weeks in Passaic, New Jersey, U.S.A.

Now
76 °F

Passing clouds.


Feels Like: 77 °F
Forecast: 72 / 82 °F
Wind: 7 mph from Northwest

Location: Teterboro Airport

Current Time: Jul 24, 2014 at 3:22:39 AM

Latest Report: Jul 24, 2014 at 1:51 AM


Visibility: 10 mi

Pressure: 29.80 "Hg

Humidity: 74%

Dew point: 67 °F

Location of PassaicLocation

Historic Weather in Passaic — Graph

°F

Passaic temperature yesterday

Maximum temperature yesterday: 96 °F (at 4:51 PM)
Minimum temperature yesterday: 74 °F (at 4:51 AM)
Average temperature yesterday: 85 °F

Past Weeks' High & Low Weather Summary

 TemperatureHumidityPressure
High96 °F (Jul 23, 4:51 PM)89% (Jul 14, 4:00 AM)30.24 "Hg (Jul 14, 4:00 AM)
Low64 °F (Jul 18, 5:51 AM)28% (Jul 18, 3:51 PM)29.73 "Hg (Jul 15, 4:51 PM)
Average78 °F60%30.02 "Hg
* Reported Jul 9 1:51 AM — Jul 24 1:51 AM, Passaic, Weather by CustomWeather, © 2014

Note: Actual official high and low records may vary slightly from our data, if they occured in-between our weather recording intervals... More about our weather records

Advertising

Passaic weather history for previous 24 hours

 ConditionsComfort  
Time TempWeatherWind HumidityBarometerVisibility
1:51 AM
Jul 24
76 °FPassing clouds.7 mph74%29.80 "Hg10 mi
12:51 AM78 °FClear.10 mph69%29.79 "Hg10 mi
11:51 PM
Jul 23
80 °FPassing clouds.3 mph67%29.80 "Hg10 mi
10:51 PM82 °FMostly cloudy.7 mph67%29.81 "Hg10 mi
9:51 PM82 °FPassing clouds.8 mph65%29.82 "Hg10 mi
8:51 PM88 °FThunderstorms. Broken clouds.15 mph54%29.79 "Hg10 mi
7:51 PM90 °FSunny.13 mph50%29.76 "Hg10 mi
6:51 PM89 °FScattered clouds.7 mph55%29.75 "Hg10 mi
5:51 PM96 °FScattered clouds.12 mph44%29.75 "Hg10 mi
4:51 PM96 °FScattered clouds.12 mph41%29.77 "Hg10 mi
3:51 PM93 °FScattered clouds.14 mph49%29.79 "Hg9 mi
2:51 PM90 °FBroken clouds.14 mph54%29.83 "Hg10 mi
1:51 PM91 °FBroken clouds.12 mph52%29.85 "Hg10 mi
12:51 PM90 °FPassing clouds.10 mph54%29.86 "Hg10 mi
11:51 AM88 °FSunny.10 mph54%29.89 "Hg10 mi
10:51 AM85 °FSunny.12 mph59%29.92 "Hg10 mi
9:51 AM82 °FPartly sunny.6 mph60%29.94 "Hg9 mi
8:51 AM80 °FPartly sunny.7 mph64%29.97 "Hg10 mi
6:51 AM74 °FSunny.7 mph69%29.97 "Hg10 mi
5:51 AM74 °FPassing clouds.8 mph69%29.96 "Hg10 mi
4:51 AM74 °FPassing clouds.6 mph69%29.98 "Hg10 mi
Weather by CustomWeather, © 2014

See weather overviewHow to use our weather pages